Home   Weather   Pereira   Past weeks

Flag for Colombia Past Weather in Pereira, Colombia — Yesterday and Last 2 Weeks

Now
63 °F

Fog.


Feels Like: 63 °F
Forecast: 60 / 86 °F
Wind: 12 mph from East

Location: Pereira / Matecana

Current Time: Apr 27, 2017 at 6:04:39 am

Latest Report: Apr 27, 2017 at 5:00 am


Visibility: 6 mi

Pressure: 30.03 "Hg (25.38 "Hg at 1427m altitude)

Humidity: 88%

Dew Point: 59 °F

Location of PereiraLocation

Past Weather in Pereira — Graph

°F

Pereira Temperature Yesterday

Maximum temperature yesterday: 73 °F (at 1:00 pm)
Minimum temperature yesterday: 64 °F (at 5:00 am)
Average temperature yesterday: 68 °F

High & Low Weather Summary for the Past Weeks

 TemperatureHumidityPressure
High86 °F (Apr 13, 3:00 pm)100% (Apr 12, 6:00 am)30.17 "Hg (Apr 12, 6:00 am)
Low63 °F (Apr 15, 6:00 am)51% (Apr 13, 4:00 pm)29.88 "Hg (Apr 13, 3:00 pm)
Average72 °F82%30.04 "Hg
* Reported Apr 12 5:00 am — Apr 27 5:00 am, Pereira, Weather by CustomWeather, © 2017

Note: Actual official high and low records may vary slightly from our data, if they occured in-between our weather recording intervals... More about our weather records

Advertising

Pereira Weather History for the Previous 24 Hours

Scroll right to see more
 ConditionsComfort  
Time TempWeatherWind HumidityBarometerVisibility
5:00 am
Thu, Apr 27
63 °FFog.12 mph88%30.03 "Hg6 mi
10:00 pm
Wed, Apr 26
66 °FPassing clouds.12 mph78%30.07 "HgN/A
9:00 pm66 °FPassing clouds.9 mph83%30.06 "HgN/A
8:00 pm66 °FPassing clouds.7 mph88%30.03 "HgN/A
7:00 pm68 °FPassing clouds.9 mph83%30.02 "HgN/A
6:00 pm68 °FScattered clouds.9 mph83%30.00 "HgN/A
5:00 pm68 °FPartly sunny.9 mph88%30.00 "HgN/A
4:00 pm73 °FThunderstorms. Partly sunny.2 mph78%30.02 "Hg6 mi
3:00 pm73 °FPartly sunny.5 mph78%30.02 "HgN/A
2:00 pm73 °FBroken clouds.6 mph78%30.04 "HgN/A
1:00 pm73 °FScattered clouds.3 mph78%30.08 "HgN/A
12:00 pm72 °FScattered clouds.2 mph83%30.11 "HgN/A
11:00 am70 °FFog.2 mph88%30.14 "Hg5 mi
10:00 am68 °FFog.3 mph94%30.15 "Hg4 mi
9:00 am66 °FBroken clouds.5 mph100%30.14 "Hg1 mi
8:00 am64 °FDrizzle. Broken clouds.2 mph100%30.12 "Hg1 mi
7:00 am64 °FBroken clouds.2 mph100%30.09 "Hg1 mi
6:00 am64 °FDrizzle. Broken clouds.2 mph100%30.09 "Hg3 mi
Weather by CustomWeather, © 2017

See weather overviewHow to use our weather pages